Regional Weather Roundup
Issued by NWS Albany, NY

Home | Current Version | Previous Version | Text Only | Print | Product List | Glossary On
Versions: 1 2 3 4 5 6 7 8 9 10 11 12 13 14 15 16 17 18 19 20 21 22 23 24 25 26 27
000
ASUS41 KALY 170310
RWRALY

NEW YORK STATE HOURLY WEATHER ROUNDUP
NATIONAL WEATHER SERVICE ALBANY NY
1000 PM EST TUE JAN 16 2018

NOTE: "FAIR" INDICATES FEW OR NO CLOUDS BELOW 12,000 FEET WITH NO
SIGNIFICANT WEATHER AND/OR NO OBSTRUCTIONS TO VISIBILITY.

NYZ032-033-038>043-046>054-057>066-NYZ062>081-082-084-170400-
EAST


CITY           SKY/WX    TMP DP  RH WIND       PRES   REMARKS
ALBANY         LGT SNOW  28  25  88 N3        30.40S VSB 1
GLENS FALLS    LGT SNOW  23  23 100 CALM      30.40S FOG
POUGHKEEPSIE   LGT SNOW  29  26  89 CALM      30.38S FOG
NEWBURGH       LGT SNOW  28  28 100 CALM      30.37F FOG
MONTGOMERY     LGT SNOW  28  26  92 CALM      30.36S FOG
WHITE PLAINS   CLOUDY    32  27  81 E5        30.36F WCI  27
ISLIP          CLOUDY    36  33  89 E7        30.37F WCI  30
NEW YORK CITY  MOCLDY    33  29  85 NE6       30.38F WCI  28
CENTRAL PARK   FAIR      34  29  82 NE3       30.39F
$$

NYZ005>009-017-018-044>046-055-056-170400-
CENTRAL


CITY           SKY/WX    TMP DP  RH WIND       PRES   REMARKS
FULTON         LGT SNOW  24  21  88 E3        30.37S FOG
SYRACUSE       LGT SNOW  24  24 100 E5        30.37F FOG     WCI  18
ROME           LGT SNOW  23  22  96 CALM      30.40S FOG
ELMIRA         LGT SNOW  27  25  92 E3        30.32F FOG
BINGHAMTON     LGT SNOW  24  23  96 CALM      30.28F VSB 1
MONTICELLO     LGT SNOW  26  25  96 CALM      30.32S VSB 3/4
$$

NYZ026>034-041>043-087-170400-
NORTH


CITY           SKY/WX    TMP DP  RH WIND       PRES   REMARKS
WATERTOWN      CLOUDY     9   8  96 CALM      30.39S
FORT DRUM      NOT AVBL
OGDENSBURG     CLOUDY     9   7  91 CALM      30.40F
MASSENA        CLOUDY    12   9  87 W5        30.43R WCI   4
SARANAC LAKE   LGT SNOW  20  18  92 SW6       30.28S FOG     WCI  12
PLATTSBURGH    CLOUDY    15  12  88 CALM      30.40S FOG
$$

NYZ001>004-010>016-019>021-085-170400-
WEST


CITY           SKY/WX    TMP DP  RH WIND       PRES   REMARKS
NIAGARA FALLS  CLOUDY    17   8  67 SW15      30.39S WCI   2
BUFFALO        FLURRIES  16  12  84 SW15      30.39S WCI   1
DUNKIRK        FLURRIES  14   7  73 SW13      30.42S WCI   0
JAMESTOWN      FLURRIES   9   5  84 W10       30.33S WCI  -5
WELLSVILLE     LGT SNOW  23  20  88 N5        30.26R FOG     WCI  17
ROCHESTER      LGT SNOW  22  18  85 W12       30.38R FOG     WCI  10
PENN YAN       CLOUDY    25  22  88 NE3       30.32F FOG
$$

             KEY
       WCI = WIND CHILL INDEX
       VSB = VISIBILITY
       HX  = HEAT INDEX
$$




USA.gov is the U.S. government's official web portal to all federal, state and local government web resources and services.